Huntington, WV

8:57 AM EST on January 24, 2017 (GMT -0500)
Tri-State / Ferguson

Weather History for KHTS - October, 2012

Change the Weather History Date:

Sunday, October 7, 2012

  Actual Average Record
Temperature  
Mean Temperature 47 °F 59 °F  
Max Temperature 56 °F 71 °F 93 °F (1941)
Min Temperature 38 °F 48 °F 29 °F (1964)
Degree Days  
Heating Degree Days 18 7  
Month to date heating degree days 36 41  
Since 1 July heating degree days 106 99  
Cooling Degree Days 0 1  
Month to date cooling degree days 12 9  
Year to date cooling degree days 1317 1120  
Moisture  
Dew Point 38 °F    
Average Humidity 71    
Maximum Humidity 92    
Minimum Humidity 50    
Precipitation  
Precipitation 0.00 in 0.09 in 1.29 in (1998)
Month to date precipitation 0.38 0.61  
Year to date precipitation 32.31 33.64  
Snow  
Snow 0.00 in - - ()
Month to date snowfall 0.0  
Since 1 September snowfall 0.0  
Snow Depth 0.00 in    
Sea Level Pressure  
Sea Level Pressure 30.13 in    
Wind  
Wind Speed 3 mph (NNW)    
Max Wind Speed 9 mph    
Max Gust Speed 13 mph    
Visibility 10 miles    
Events      
T = Trace of Precipitation, MM = Missing Value Source: NWS Daily Summary

Daily Weather History Graph

Daily Weather History Graph

Search for Another Location

Airport or City:

Trip Planner

Search our weather history database for the weather conditions in past years. The results will help you decide how hot, cold, wet, or windy it might be!

Date:

Astronomy

Oct. 07, 2012 Rise Set
Actual Time 7:31 AM EDT 7:03 PM EDT
Civil Twilight 7:05 AM EDT 7:29 PM EDT
Nautical Twilight 6:34 AM EDT 8:00 PM EDT
Astronomical Twilight 6:04 AM EDT 8:30 PM EDT
Moon No Moon Rise 2:05 PM EDT (10/7)
Length of Visible Light 12h 24m
Length of Day
11h 31m
Waning Gibbous, 56% of the Moon is Illuminated
Oct 7
Waning Gibbous
Oct 8
Last Quarter
Oct 15
New
Oct 21
First Quarter
Oct 29
Full

Hourly Weather History & Observations

Time (EDT) Temp. Dew Point Humidity Pressure Visibility Wind Dir Wind Speed Gust Speed Precip Events Conditions
12:51 AM 46.9 °F 42.1 °F 83% 30.09 in 10.0 mi Calm Calm - N/A   Overcast
1:51 AM 48.0 °F 43.0 °F 83% 30.09 in 10.0 mi Calm Calm - N/A   Overcast
2:51 AM 50.0 °F 39.2 °F 66% 30.09 in 10.0 mi North 3.5 mph - N/A   Overcast
3:51 AM 48.9 °F 37.0 °F 64% 30.07 in 10.0 mi North 3.5 mph - N/A   Overcast
4:51 AM 48.0 °F 37.9 °F 68% 30.06 in 10.0 mi North 4.6 mph - N/A   Overcast
5:51 AM 48.0 °F 37.9 °F 68% 30.08 in 10.0 mi NNW 4.6 mph - N/A   Overcast
6:51 AM 46.9 °F 37.9 °F 71% 30.08 in 10.0 mi North 3.5 mph - N/A   Overcast
7:51 AM 46.9 °F 39.0 °F 74% 30.09 in 10.0 mi NNW 6.9 mph - N/A   Overcast
8:51 AM 46.9 °F 39.0 °F 74% 30.12 in 10.0 mi North 4.6 mph - N/A   Overcast
9:51 AM 48.0 °F 39.0 °F 71% 30.12 in 10.0 mi North 3.5 mph - N/A   Overcast
10:51 AM 48.9 °F 39.0 °F 69% 30.13 in 10.0 mi Variable 3.5 mph - N/A   Overcast
11:51 AM 48.9 °F 39.0 °F 69% 30.14 in 10.0 mi NNW 3.5 mph - N/A   Overcast
12:51 PM 48.9 °F 39.0 °F 69% 30.15 in 10.0 mi NW 5.8 mph - N/A   Overcast
1:51 PM 50.0 °F 39.0 °F 66% 30.14 in 10.0 mi NW 4.6 mph - N/A   Overcast
2:51 PM 51.1 °F 37.9 °F 61% 30.14 in 10.0 mi NNW 4.6 mph - N/A   Overcast
3:51 PM 53.1 °F 37.0 °F 55% 30.14 in 10.0 mi NW 6.9 mph - N/A   Overcast
4:51 PM 54.0 °F 37.0 °F 53% 30.14 in 10.0 mi NNW 5.8 mph - N/A   Overcast
5:51 PM 54.0 °F 35.1 °F 49% 30.14 in 10.0 mi WNW 3.5 mph - N/A   Scattered Clouds
6:51 PM 50.0 °F 35.1 °F 57% 30.15 in 10.0 mi North 3.5 mph - N/A   Partly Cloudy
7:51 PM 48.0 °F 35.1 °F 61% 30.16 in 10.0 mi Calm Calm - N/A   Partly Cloudy
8:51 PM 44.1 °F 39.0 °F 82% 30.17 in 10.0 mi Calm Calm - N/A   Partly Cloudy
9:51 PM 43.0 °F 37.9 °F 82% 30.19 in 10.0 mi Calm Calm - N/A   Clear
10:51 PM 39.9 °F 37.9 °F 93% 30.20 in 10.0 mi Calm Calm - N/A   Clear
11:51 PM 39.9 °F 37.0 °F 89% 30.19 in 10.0 mi Calm Calm - N/A   Clear